{"data":{"norad_id":65690,"epoch":"2026-09-20T00:12:44.722944Z","epoch_age_seconds":151196,"freshness":"FRESH","line1":"1 65690U 25212Q   26263.00885096  .00014608  00000+0  44260-3 0  9990","line2":"2 65690  53.1569 160.3220 0001241 292.9998  67.0874 15.34403002 56989","mean_motion":15.34403002,"eccentricity":0.0001241,"inclination_deg":53.1569,"raan_deg":160.322,"arg_perigee_deg":292.9998,"mean_anomaly_deg":67.0874,"bstar":0.0004426,"rev_number":5698,"period_min":93.847574471834,"perigee_km":461.84537047849,"apogee_km":463.54326481153,"semimajor_km":6840.831317645,"source":"CELESTRAK","updated_at":"2026-09-21T09:00:35.687916Z"}}